Time,TemperatureF,DewpointF,PressureIn,WindDirection,WindDirectionDegrees,WindSpeedMPH,WindSpeedGustMPH,Humidity,HourlyPrecipIn,Conditions,Clouds,dailyrainin,SoftwareType,DateUTC
2016-07-26 00:01:00,75.1,40.6,29.96,North,0,0.0,0.0,29,0.00,,,0.00,WUHU216HW,2016-07-26 07:01:00,
2016-07-26 00:06:00,74.9,40.4,29.96,North,0,0.0,0.0,29,0.00,,,0.00,WUHU216HW,2016-07-26 07:06:00,
2016-07-26 00:11:00,74.7,40.2,29.96,North,0,0.0,0.0,29,0.00,,,0.00,WUHU216HW,2016-07-26 07:11:00,
2016-07-26 00:16:00,74.5,40.1,29.96,North,0,0.0,0.0,29,0.00,,,0.00,WUHU216HW,2016-07-26 07:16:00,
2016-07-26 00:21:00,74.3,40.0,29.96,North,0,0.0,0.0,29,0.00,,,0.00,WUHU216HW,2016-07-26 07:21:00,
2016-07-26 00:26:00,74.3,40.0,29.96,North,0,0.0,0.0,29,0.00,,,0.00,WUHU216HW,2016-07-26 07:26:00,
2016-07-26 00:31:00,73.8,40.5,29.96,North,0,0.0,0.0,30,0.00,,,0.00,WUHU216HW,2016-07-26 07:31:00,
2016-07-26 00:36:00,73.4,40.1,29.97,North,0,0.0,0.0,30,0.00,,,0.00,WUHU216HW,2016-07-26 07:36:00,
2016-07-26 00:41:00,73.1,39.9,29.97,North,0,0.0,0.0,30,0.00,,,0.00,WUHU216HW,2016-07-26 07:41:00,
2016-07-26 00:46:00,72.9,38.7,29.97,North,0,0.0,0.0,29,0.00,,,0.00,WUHU216HW,2016-07-26 07:46:00,
2016-07-26 00:51:00,72.4,39.2,29.97,North,0,0.0,0.0,30,0.00,,,0.00,WUHU216HW,2016-07-26 07:51:00,
2016-07-26 00:56:00,71.6,39.4,29.97,North,0,0.0,0.0,31,0.00,,,0.00,WUHU216HW,2016-07-26 07:56:00,
2016-07-26 01:01:00,71.3,39.2,29.97,North,0,0.0,0.0,31,0.00,,,0.00,WUHU216HW,2016-07-26 08:01:00,
2016-07-26 01:06:00,71.1,39.7,29.96,North,0,0.0,0.0,32,0.00,,,0.00,WUHU216HW,2016-07-26 08:06:00,
2016-07-26 01:11:00,71.3,39.2,29.96,North,0,0.0,0.0,31,0.00,,,0.00,WUHU216HW,2016-07-26 08:11:00,
2016-07-26 01:16:00,71.1,39.0,29.97,North,0,0.0,0.0,31,0.00,,,0.00,WUHU216HW,2016-07-26 08:16:00,
2016-07-26 01:21:00,70.6,38.4,29.97,North,0,0.0,0.0,31,0.00,,,0.00,WUHU216HW,2016-07-26 08:21:00,
2016-07-26 01:26:00,70.2,39.6,29.97,North,0,0.0,0.0,33,0.00,,,0.00,WUHU216HW,2016-07-26 08:26:00,
2016-07-26 01:31:00,69.8,39.3,29.97,North,0,0.0,0.0,33,0.00,,,0.00,WUHU216HW,2016-07-26 08:31:00,
2016-07-26 01:36:00,69.8,39.3,29.97,North,0,0.0,0.0,33,0.00,,,0.00,WUHU216HW,2016-07-26 08:36:00,
2016-07-26 01:41:00,69.7,39.2,29.97,North,0,0.0,0.0,33,0.00,,,0.00,WUHU216HW,2016-07-26 08:41:00,
2016-07-26 01:46:00,69.7,39.2,29.97,North,0,0.0,0.0,33,0.00,,,0.00,WUHU216HW,2016-07-26 08:46:00,
2016-07-26 01:51:00,69.5,39.0,29.97,North,0,0.0,0.0,33,0.00,,,0.00,WUHU216HW,2016-07-26 08:51:00,
2016-07-26 01:56:00,69.3,38.8,29.97,North,0,0.0,0.0,33,0.00,,,0.00,WUHU216HW,2016-07-26 08:56:00,
2016-07-26 02:01:00,69.1,37.9,29.97,North,0,0.0,0.0,32,0.00,,,0.00,WUHU216HW,2016-07-26 09:01:00,
2016-07-26 02:06:00,69.1,37.9,29.97,North,0,0.0,0.0,32,0.00,,,0.00,WUHU216HW,2016-07-26 09:06:00,
2016-07-26 02:11:00,68.9,38.5,29.97,North,0,0.0,0.0,33,0.00,,,0.00,WUHU216HW,2016-07-26 09:11:00,
2016-07-26 02:16:00,68.8,38.4,29.97,North,0,0.0,0.0,33,0.00,,,0.00,WUHU216HW,2016-07-26 09:16:00,
2016-07-26 02:21:00,68.0,38.4,29.97,North,0,0.0,0.0,34,0.00,,,0.00,WUHU216HW,2016-07-26 09:21:00,
2016-07-26 02:26:00,67.7,38.1,29.97,North,0,0.0,0.0,34,0.00,,,0.00,WUHU216HW,2016-07-26 09:26:00,
2016-07-26 02:31:00,67.3,37.8,29.97,North,0,0.0,0.0,34,0.00,,,0.00,WUHU216HW,2016-07-26 09:31:00,
2016-07-26 02:36:00,67.0,37.5,29.97,North,0,0.0,0.0,34,0.00,,,0.00,WUHU216HW,2016-07-26 09:36:00,
2016-07-26 02:41:00,67.0,37.5,29.97,North,0,0.0,0.0,34,0.00,,,0.00,WUHU216HW,2016-07-26 09:41:00,
2016-07-26 02:46:00,66.6,36.5,29.97,North,0,0.0,0.0,33,0.00,,,0.00,WUHU216HW,2016-07-26 09:46:00,
2016-07-26 02:51:00,66.6,37.2,29.97,North,0,0.0,0.0,34,0.00,,,0.00,WUHU216HW,2016-07-26 09:51:00,
2016-07-26 02:56:00,66.1,36.7,29.97,North,0,0.0,0.0,34,0.00,,,0.00,WUHU216HW,2016-07-26 09:56:00,
2016-07-26 03:01:00,65.9,36.5,29.97,North,0,0.0,0.0,34,0.00,,,0.00,WUHU216HW,2016-07-26 10:01:00,
2016-07-26 03:06:00,65.5,36.3,29.97,North,0,0.0,0.0,34,0.00,,,0.00,WUHU216HW,2016-07-26 10:06:00,
2016-07-26 03:11:00,65.3,36.1,29.97,North,0,0.0,0.0,34,0.00,,,0.00,WUHU216HW,2016-07-26 10:11:00,
2016-07-26 03:16:00,65.2,35.9,29.97,North,0,0.0,0.0,34,0.00,,,0.00,WUHU216HW,2016-07-26 10:16:00,
2016-07-26 03:21:00,65.0,35.7,29.97,North,0,0.0,0.0,34,0.00,,,0.00,WUHU216HW,2016-07-26 10:21:00,
2016-07-26 03:26:00,64.8,35.7,29.97,North,0,0.0,0.0,34,0.00,,,0.00,WUHU216HW,2016-07-26 10:26:00,
2016-07-26 03:31:00,64.4,36.7,29.97,North,0,0.0,0.0,36,0.00,,,0.00,WUHU216HW,2016-07-26 10:31:00,
2016-07-26 03:36:00,64.3,36.5,29.97,North,0,0.0,0.0,36,0.00,,,0.00,WUHU216HW,2016-07-26 10:36:00,
2016-07-26 03:41:00,64.1,36.4,29.97,North,0,0.0,0.0,36,0.00,,,0.00,WUHU216HW,2016-07-26 10:41:00,
2016-07-26 03:47:00,63.7,36.1,29.97,North,0,0.0,0.0,36,0.00,,,0.00,WUHU216HW,2016-07-26 10:47:00,
2016-07-26 03:51:00,63.4,35.7,29.98,North,0,0.0,0.0,36,0.00,,,0.00,WUHU216HW,2016-07-26 10:51:00,
2016-07-26 03:56:00,63.0,35.5,29.98,North,0,0.0,0.0,36,0.00,,,0.00,WUHU216HW,2016-07-26 10:56:00,
2016-07-26 04:01:00,63.0,34.8,29.98,North,0,0.0,0.0,35,0.00,,,0.00,WUHU216HW,2016-07-26 11:01:00,
2016-07-26 04:06:00,63.0,35.5,29.98,North,0,0.0,0.0,36,0.00,,,0.00,WUHU216HW,2016-07-26 11:06:00,
2016-07-26 04:11:00,63.0,35.5,29.98,North,0,0.0,0.0,36,0.00,,,0.00,WUHU216HW,2016-07-26 11:11:00,
2016-07-26 04:16:00,63.0,34.8,29.98,North,0,0.0,0.0,35,0.00,,,0.00,WUHU216HW,2016-07-26 11:16:00,
2016-07-26 04:21:00,62.8,35.3,29.98,North,0,0.0,0.0,36,0.00,,,0.00,WUHU216HW,2016-07-26 11:21:00,
2016-07-26 04:26:00,62.6,35.1,29.98,North,0,0.0,0.0,36,0.00,,,0.00,WUHU216HW,2016-07-26 11:26:00,
2016-07-26 04:31:00,62.3,34.7,29.98,North,0,0.0,0.0,36,0.00,,,0.00,WUHU216HW,2016-07-26 11:31:00,
2016-07-26 04:36:00,62.3,35.5,29.98,North,0,0.0,0.0,37,0.00,,,0.00,WUHU216HW,2016-07-26 11:36:00,
2016-07-26 04:41:00,62.1,35.4,29.98,North,0,0.0,0.0,37,0.00,,,0.00,WUHU216HW,2016-07-26 11:41:00,
2016-07-26 04:46:00,61.9,35.2,29.98,North,0,0.0,0.0,37,0.00,,,0.00,WUHU216HW,2016-07-26 11:46:00,
2016-07-26 04:51:00,61.7,35.0,29.98,North,0,0.0,0.0,37,0.00,,,0.00,WUHU216HW,2016-07-26 11:51:00,
2016-07-26 04:56:00,61.7,34.3,29.98,North,0,0.0,0.0,36,0.00,,,0.00,WUHU216HW,2016-07-26 11:56:00,
2016-07-26 05:01:00,61.6,34.1,29.98,North,0,0.0,0.0,36,0.00,,,0.00,WUHU216HW,2016-07-26 12:01:00,
2016-07-26 05:06:00,61.6,34.8,29.98,North,0,0.0,0.0,37,0.00,,,0.00,WUHU216HW,2016-07-26 12:06:00,
2016-07-26 05:11:00,61.4,34.7,29.98,North,0,0.0,0.0,37,0.00,,,0.00,WUHU216HW,2016-07-26 12:11:00,
2016-07-26 05:16:00,61.2,34.6,29.98,North,0,0.0,0.0,37,0.00,,,0.00,WUHU216HW,2016-07-26 12:16:00,
2016-07-26 05:21:00,61.2,35.3,29.98,North,0,0.0,0.0,38,0.00,,,0.00,WUHU216HW,2016-07-26 12:21:00,
2016-07-26 05:26:00,61.0,34.4,29.98,North,0,0.0,0.0,37,0.00,,,0.00,WUHU216HW,2016-07-26 12:26:00,
2016-07-26 05:31:00,60.8,34.9,29.98,North,0,0.0,0.0,38,0.00,,,0.00,WUHU216HW,2016-07-26 12:31:00,
2016-07-26 05:36:00,60.7,34.7,29.98,North,0,0.0,0.0,38,0.00,,,0.00,WUHU216HW,2016-07-26 12:36:00,
2016-07-26 05:41:00,60.5,34.6,29.98,North,0,0.0,0.0,38,0.00,,,0.00,WUHU216HW,2016-07-26 12:41:00,
2016-07-26 05:46:00,60.5,33.9,29.98,North,0,0.0,0.0,37,0.00,,,0.00,WUHU216HW,2016-07-26 12:46:00,
2016-07-26 05:51:00,60.5,33.9,29.98,North,0,0.0,0.0,37,0.00,,,0.00,WUHU216HW,2016-07-26 12:51:00,
2016-07-26 05:56:00,60.5,33.9,29.98,North,0,0.0,0.0,37,0.00,,,0.00,WUHU216HW,2016-07-26 12:56:00,
2016-07-26 06:01:00,60.5,34.6,29.99,North,0,0.0,0.0,38,0.00,,,0.00,WUHU216HW,2016-07-26 13:01:00,
2016-07-26 06:07:00,60.5,34.6,29.99,North,0,0.0,0.0,38,0.00,,,0.00,WUHU216HW,2016-07-26 13:07:00,
2016-07-26 06:12:00,60.3,34.5,29.99,North,0,0.0,0.0,38,0.00,,,0.00,WUHU216HW,2016-07-26 13:12:00,
2016-07-26 06:17:00,60.3,35.2,29.99,North,0,0.0,0.0,39,0.00,,,0.00,WUHU216HW,2016-07-26 13:17:00,
2016-07-26 06:22:00,60.1,34.3,29.99,North,0,0.0,0.0,38,0.00,,,0.00,WUHU216HW,2016-07-26 13:22:00,
2016-07-26 06:27:00,60.1,34.3,29.99,North,0,0.0,0.0,38,0.00,,,0.00,WUHU216HW,2016-07-26 13:27:00,
2016-07-26 06:32:00,60.1,35.0,29.99,North,0,0.0,0.0,39,0.00,,,0.00,WUHU216HW,2016-07-26 13:32:00,
2016-07-26 06:37:00,60.1,35.0,29.99,North,0,0.0,0.0,39,0.00,,,0.00,WUHU216HW,2016-07-26 13:37:00,
2016-07-26 06:42:00,60.1,35.0,29.99,North,0,0.0,0.0,39,0.00,,,0.00,WUHU216HW,2016-07-26 13:42:00,
2016-07-26 06:47:00,60.3,35.2,29.99,North,0,0.0,0.0,39,0.00,,,0.00,WUHU216HW,2016-07-26 13:47:00,
2016-07-26 06:52:00,60.1,35.0,30.00,North,0,0.0,0.0,39,0.00,,,0.00,WUHU216HW,2016-07-26 13:52:00,
2016-07-26 06:57:00,60.3,35.2,30.00,North,0,0.0,0.0,39,0.00,,,0.00,WUHU216HW,2016-07-26 13:57:00,
2016-07-26 07:02:00,60.3,35.9,30.00,North,0,0.0,0.0,40,0.00,,,0.00,WUHU216HW,2016-07-26 14:02:00,
2016-07-26 07:07:00,60.3,35.9,30.00,North,0,0.0,0.0,40,0.00,,,0.00,WUHU216HW,2016-07-26 14:07:00,
2016-07-26 07:12:00,60.5,36.0,30.00,North,0,0.0,0.0,40,0.00,,,0.00,WUHU216HW,2016-07-26 14:12:00,
2016-07-26 07:17:00,60.5,36.6,30.00,North,0,0.0,0.0,41,0.00,,,0.00,WUHU216HW,2016-07-26 14:17:00,
2016-07-26 07:22:00,60.7,36.8,30.00,North,0,0.0,0.0,41,0.00,,,0.00,WUHU216HW,2016-07-26 14:22:00,
2016-07-26 07:27:00,60.8,36.9,30.00,North,0,0.0,0.0,41,0.00,,,0.00,WUHU216HW,2016-07-26 14:27:00,
2016-07-26 07:32:00,61.2,37.3,30.00,North,0,0.0,0.0,41,0.00,,,0.00,WUHU216HW,2016-07-26 14:32:00,
2016-07-26 07:37:00,61.4,37.5,30.00,North,0,0.0,0.0,41,0.00,,,0.00,WUHU216HW,2016-07-26 14:37:00,
2016-07-26 07:42:00,61.6,37.6,30.00,North,0,0.0,0.0,41,0.00,,,0.00,WUHU216HW,2016-07-26 14:42:00,
2016-07-26 07:47:00,61.9,37.9,30.00,North,0,0.0,0.0,41,0.00,,,0.00,WUHU216HW,2016-07-26 14:47:00,
2016-07-26 07:52:00,62.1,38.1,30.00,North,0,0.0,0.0,41,0.00,,,0.00,WUHU216HW,2016-07-26 14:52:00,
2016-07-26 07:57:00,62.5,37.8,30.00,North,0,0.0,0.0,40,0.00,,,0.00,WUHU216HW,2016-07-26 14:57:00,
2016-07-26 08:02:00,62.8,38.7,30.00,North,0,0.0,0.0,41,0.00,,,0.00,WUHU216HW,2016-07-26 15:02:00,
2016-07-26 08:07:00,63.2,38.4,30.00,North,0,0.0,0.0,40,0.00,,,0.00,WUHU216HW,2016-07-26 15:07:00,
2016-07-26 08:12:00,63.7,38.3,30.00,North,0,0.0,0.0,39,0.00,,,0.00,WUHU216HW,2016-07-26 15:12:00,
2016-07-26 08:17:00,64.1,38.5,30.00,North,0,0.0,0.0,39,0.00,,,0.00,WUHU216HW,2016-07-26 15:17:00,
2016-07-26 08:22:00,64.6,38.4,30.00,North,0,0.0,0.0,38,0.00,,,0.00,WUHU216HW,2016-07-26 15:22:00,
2016-07-26 08:27:00,65.2,38.8,30.00,North,0,0.0,0.0,38,0.00,,,0.00,WUHU216HW,2016-07-26 15:27:00,
2016-07-26 08:32:00,65.5,39.2,30.00,North,0,0.0,0.0,38,0.00,,,0.00,WUHU216HW,2016-07-26 15:32:00,
2016-07-26 08:37:00,66.2,39.1,30.00,North,0,0.0,0.0,37,0.00,,,0.00,WUHU216HW,2016-07-26 15:37:00,
2016-07-26 08:42:00,66.6,38.6,30.00,North,0,0.0,0.0,36,0.00,,,0.00,WUHU216HW,2016-07-26 15:42:00,
2016-07-26 08:47:00,67.3,40.0,30.00,North,0,0.0,0.0,37,0.00,,,0.00,WUHU216HW,2016-07-26 15:47:00,
2016-07-26 08:52:00,67.7,38.9,30.00,North,0,0.0,0.0,35,0.00,,,0.00,WUHU216HW,2016-07-26 15:52:00,
2016-07-26 08:57:00,68.0,39.2,30.00,North,0,0.0,0.0,35,0.00,,,0.00,WUHU216HW,2016-07-26 15:57:00,
2016-07-26 09:02:00,68.8,39.1,30.00,North,0,0.0,0.0,34,0.00,,,0.00,WUHU216HW,2016-07-26 16:02:00,
2016-07-26 09:07:00,69.5,39.7,30.00,North,0,0.0,0.0,34,0.00,,,0.00,WUHU216HW,2016-07-26 16:07:00,
2016-07-26 09:12:00,69.8,40.1,29.99,North,0,0.0,0.0,34,0.00,,,0.00,WUHU216HW,2016-07-26 16:12:00,
2016-07-26 09:17:00,70.4,39.1,30.00,North,0,0.0,0.0,32,0.00,,,0.00,WUHU216HW,2016-07-26 16:17:00,
2016-07-26 09:22:00,70.9,39.5,29.99,North,0,0.0,0.0,32,0.00,,,0.00,WUHU216HW,2016-07-26 16:22:00,
2016-07-26 09:27:00,71.1,39.0,29.99,North,0,0.0,0.0,31,0.00,,,0.00,WUHU216HW,2016-07-26 16:27:00,
2016-07-26 09:32:00,71.1,39.0,29.99,North,0,0.0,0.0,31,0.00,,,0.00,WUHU216HW,2016-07-26 16:32:00,
2016-07-26 09:55:00,73.3,38.0,29.99,North,0,0.0,0.0,28,0.00,,,0.00,WUHU216HW,2016-07-26 16:55:00,
2016-07-26 10:00:00,73.6,36.3,29.98,North,0,0.0,0.0,26,0.00,,,0.00,WUHU216HW,2016-07-26 17:00:00,
2016-07-26 10:05:00,73.8,36.5,29.98,North,0,0.0,0.0,26,0.00,,,0.00,WUHU216HW,2016-07-26 17:05:00,
2016-07-26 10:10:00,74.2,38.8,29.98,North,0,0.0,0.0,28,0.00,,,0.00,WUHU216HW,2016-07-26 17:10:00,
2016-07-26 10:15:00,74.5,40.1,29.98,North,0,0.0,0.0,29,0.00,,,0.00,WUHU216HW,2016-07-26 17:15:00,
2016-07-26 10:20:00,75.1,41.6,29.98,North,0,0.0,0.0,30,0.00,,,0.00,WUHU216HW,2016-07-26 17:20:00,
2016-07-26 10:25:00,76.0,42.4,29.98,North,0,0.0,0.0,30,0.00,,,0.00,WUHU216HW,2016-07-26 17:25:00,
2016-07-26 10:30:00,76.5,41.9,29.98,North,0,0.0,0.0,29,0.00,,,0.00,WUHU216HW,2016-07-26 17:30:00,
2016-07-26 10:35:00,76.5,41.9,29.98,North,0,0.0,0.0,29,0.00,,,0.00,WUHU216HW,2016-07-26 17:35:00,
2016-07-26 10:40:00,77.0,42.3,29.98,North,0,0.0,0.0,29,0.00,,,0.00,WUHU216HW,2016-07-26 17:40:00,
2016-07-26 10:45:00,77.6,42.8,29.98,North,0,0.0,0.0,29,0.00,,,0.00,WUHU216HW,2016-07-26 17:45:00,
2016-07-26 10:50:00,77.6,42.8,29.98,North,0,0.0,0.0,29,0.00,,,0.00,WUHU216HW,2016-07-26 17:50:00,
2016-07-26 10:55:00,77.6,42.8,29.98,North,0,0.0,0.0,29,0.00,,,0.00,WUHU216HW,2016-07-26 17:55:00,
2016-07-26 11:00:00,78.7,41.6,29.98,North,0,0.0,0.0,27,0.00,,,0.00,WUHU216HW,2016-07-26 18:00:00,
2016-07-26 11:05:00,79.6,41.3,29.98,North,0,0.0,0.0,26,0.00,,,0.00,WUHU216HW,2016-07-26 18:05:00,
2016-07-26 11:10:00,79.9,41.6,29.98,North,0,0.0,0.0,26,0.00,,,0.00,WUHU216HW,2016-07-26 18:10:00,
2016-07-26 11:15:00,80.3,41.9,29.97,North,0,0.0,0.0,26,0.00,,,0.00,WUHU216HW,2016-07-26 18:15:00,
2016-07-26 11:20:00,80.6,41.2,29.97,North,0,0.0,0.0,25,0.00,,,0.00,WUHU216HW,2016-07-26 18:20:00,
2016-07-26 11:25:00,81.0,41.5,29.97,North,0,0.0,0.0,25,0.00,,,0.00,WUHU216HW,2016-07-26 18:25:00,
2016-07-26 11:30:00,81.7,42.1,29.97,North,0,0.0,0.0,25,0.00,,,0.00,WUHU216HW,2016-07-26 18:30:00,
2016-07-26 11:35:00,81.9,42.2,29.97,North,0,0.0,0.0,25,0.00,,,0.00,WUHU216HW,2016-07-26 18:35:00,
2016-07-26 11:40:00,82.6,41.8,29.97,North,0,0.0,0.0,24,0.00,,,0.00,WUHU216HW,2016-07-26 18:40:00,
2016-07-26 11:45:00,83.5,43.6,29.97,North,0,0.0,0.0,25,0.00,,,0.00,WUHU216HW,2016-07-26 18:45:00,
2016-07-26 11:50:00,83.9,40.7,29.97,North,0,0.0,0.0,22,0.00,,,0.00,WUHU216HW,2016-07-26 18:50:00,
2016-07-26 11:55:00,84.2,43.1,29.96,North,0,0.0,0.0,24,0.00,,,0.00,WUHU216HW,2016-07-26 18:55:00,
2016-07-26 12:00:00,84.8,41.5,29.96,North,0,0.0,0.0,22,0.00,,,0.00,WUHU216HW,2016-07-26 19:00:00,
2016-07-26 12:05:00,85.0,36.0,29.96,North,0,0.0,0.0,18,0.00,,,0.00,WUHU216HW,2016-07-26 19:05:00,
2016-07-26 12:10:00,85.5,36.5,29.96,North,0,0.0,0.0,18,0.00,,,0.00,WUHU216HW,2016-07-26 19:10:00,
2016-07-26 12:15:00,85.7,38.4,29.96,North,0,0.0,0.0,19,0.00,,,0.00,WUHU216HW,2016-07-26 19:15:00,
2016-07-26 12:16:00,85.9,38.4,29.96,North,0,0.0,0.0,19,0.00,,,0.00,WUHU216HW,2016-07-26 19:16:00,
2016-07-26 12:21:00,86.2,38.8,29.95,North,0,0.0,0.0,19,0.00,,,0.00,WUHU216HW,2016-07-26 19:21:00,
2016-07-26 12:26:00,86.6,37.4,29.95,North,0,0.0,0.0,18,0.00,,,0.00,WUHU216HW,2016-07-26 19:26:00,
2016-07-26 12:31:00,87.1,37.9,29.95,North,0,0.0,0.0,18,0.00,,,0.00,WUHU216HW,2016-07-26 19:31:00,
2016-07-26 12:36:00,88.0,40.3,29.95,North,0,0.0,0.0,19,0.00,,,0.00,WUHU216HW,2016-07-26 19:36:00,
2016-07-26 12:41:00,88.7,37.4,29.95,North,0,0.0,0.0,17,0.00,,,0.00,WUHU216HW,2016-07-26 19:41:00,
2016-07-26 12:46:00,89.3,39.6,29.95,North,0,0.0,0.0,18,0.00,,,0.00,WUHU216HW,2016-07-26 19:46:00,
2016-07-26 12:51:00,89.5,36.3,29.94,North,0,0.0,0.0,16,0.00,,,0.00,WUHU216HW,2016-07-26 19:51:00,
2016-07-26 12:56:00,89.5,38.0,29.94,North,0,0.0,0.0,17,0.00,,,0.00,WUHU216HW,2016-07-26 19:56:00,
2016-07-26 13:01:00,90.7,39.0,29.94,North,0,0.0,0.0,17,0.00,,,0.00,WUHU216HW,2016-07-26 20:01:00,
2016-07-26 13:06:00,92.0,40.0,29.94,North,0,0.0,0.0,17,0.00,,,0.00,WUHU216HW,2016-07-26 20:06:00,
2016-07-26 13:11:00,92.9,39.0,29.94,North,0,0.0,0.0,16,0.00,,,0.00,WUHU216HW,2016-07-26 20:11:00,
2016-07-26 13:16:00,93.4,39.3,29.93,North,0,0.0,0.0,16,0.00,,,0.00,WUHU216HW,2016-07-26 20:16:00,
2016-07-26 13:21:00,94.5,40.2,29.93,North,0,0.0,0.0,16,0.00,,,0.00,WUHU216HW,2016-07-26 20:21:00,
2016-07-26 13:26:00,95.0,40.7,29.93,North,0,0.0,0.0,16,0.00,,,0.00,WUHU216HW,2016-07-26 20:26:00,
2016-07-26 13:31:00,95.6,41.1,29.93,North,0,0.0,0.0,16,0.00,,,0.00,WUHU216HW,2016-07-26 20:31:00,
2016-07-26 13:36:00,96.3,41.7,29.93,North,0,0.0,0.0,16,0.00,,,0.00,WUHU216HW,2016-07-26 20:36:00,
2016-07-26 13:41:00,96.5,40.1,29.93,North,0,0.0,0.0,15,0.00,,,0.00,WUHU216HW,2016-07-26 20:41:00,
2016-07-26 13:46:00,95.9,36.0,29.92,North,0,0.0,0.0,13,0.00,,,0.00,WUHU216HW,2016-07-26 20:46:00,
2016-07-26 13:51:00,96.1,36.2,29.92,North,0,0.0,0.0,13,0.00,,,0.00,WUHU216HW,2016-07-26 20:51:00,
2016-07-26 13:56:00,96.7,36.5,29.92,North,0,0.0,0.0,13,0.00,,,0.00,WUHU216HW,2016-07-26 20:56:00,
2016-07-26 14:01:00,97.6,37.3,29.92,North,0,0.0,0.0,13,0.00,,,0.00,WUHU216HW,2016-07-26 21:01:00,
2016-07-26 14:06:00,98.3,36.1,29.92,North,0,0.0,0.0,12,0.00,,,0.00,WUHU216HW,2016-07-26 21:06:00,
2016-07-26 14:11:00,97.9,37.6,29.92,North,0,0.0,0.0,13,0.00,,,0.00,WUHU216HW,2016-07-26 21:11:00,
2016-07-26 14:16:00,98.6,36.4,29.91,North,0,0.0,0.0,12,0.00,,,0.00,WUHU216HW,2016-07-26 21:16:00,
2016-07-26 14:21:00,99.2,36.8,29.91,North,0,0.0,0.0,12,0.00,,,0.00,WUHU216HW,2016-07-26 21:21:00,
2016-07-26 14:26:00,98.5,34.4,29.91,North,0,0.0,0.0,11,0.00,,,0.00,WUHU216HW,2016-07-26 21:26:00,
2016-07-26 14:31:00,98.1,35.9,29.91,North,0,0.0,0.0,12,0.00,,,0.00,WUHU216HW,2016-07-26 21:31:00,
2016-07-26 14:36:00,98.1,35.9,29.91,North,0,0.0,0.0,12,0.00,,,0.00,WUHU216HW,2016-07-26 21:36:00,
2016-07-26 14:59:00,99.7,33.7,29.90,North,0,0.0,0.0,10,0.00,,,0.00,WUHU216HW,2016-07-26 21:59:00,
2016-07-26 15:04:00,99.5,33.5,29.90,North,0,0.0,0.0,8,0.00,,,0.00,WUHU216HW,2016-07-26 22:04:00,
2016-07-26 15:09:00,99.7,33.7,29.90,North,0,0.0,0.0,7,0.00,,,0.00,WUHU216HW,2016-07-26 22:09:00,
2016-07-26 15:14:00,99.4,33.3,29.90,North,0,0.0,0.0,7,0.00,,,0.00,WUHU216HW,2016-07-26 22:14:00,
2016-07-26 15:19:00,99.5,33.5,29.89,North,0,0.0,0.0,8,0.00,,,0.00,WUHU216HW,2016-07-26 22:19:00,
2016-07-26 15:24:00,99.0,33.0,29.89,North,0,0.0,0.0,8,0.00,,,0.00,WUHU216HW,2016-07-26 22:24:00,
2016-07-26 15:29:00,99.2,33.2,29.90,North,0,0.0,0.0,7,0.00,,,0.00,WUHU216HW,2016-07-26 22:29:00,
2016-07-26 15:34:00,100.1,33.9,29.89,North,0,0.0,0.0,8,0.00,,,0.00,WUHU216HW,2016-07-26 22:34:00,
2016-07-26 15:39:00,100.3,34.0,29.89,North,0,0.0,0.0,7,0.00,,,0.00,WUHU216HW,2016-07-26 22:39:00,
2016-07-26 15:44:00,100.1,33.9,29.89,North,0,0.0,0.0,7,0.00,,,0.00,WUHU216HW,2016-07-26 22:44:00,
2016-07-26 15:49:00,100.1,33.9,29.89,North,0,0.0,0.0,6,0.00,,,0.00,WUHU216HW,2016-07-26 22:49:00,
2016-07-26 15:54:00,99.9,33.8,29.89,North,0,0.0,0.0,7,0.00,,,0.00,WUHU216HW,2016-07-26 22:54:00,
2016-07-26 15:59:00,99.9,33.8,29.89,North,0,0.0,0.0,7,0.00,,,0.00,WUHU216HW,2016-07-26 22:59:00,
2016-07-26 16:04:00,100.1,33.9,29.89,North,0,0.0,0.0,7,0.00,,,0.00,WUHU216HW,2016-07-26 23:04:00,
2016-07-26 16:09:00,100.1,33.9,29.89,North,0,0.0,0.0,8,0.00,,,0.00,WUHU216HW,2016-07-26 23:09:00,
2016-07-26 16:14:00,100.3,34.0,29.89,North,0,0.0,0.0,7,0.00,,,0.00,WUHU216HW,2016-07-26 23:14:00,
2016-07-26 16:19:00,99.7,33.7,29.89,North,0,0.0,0.0,7,0.00,,,0.00,WUHU216HW,2016-07-26 23:19:00,
2016-07-26 16:24:00,100.8,34.5,29.89,North,0,0.0,0.0,8,0.00,,,0.00,WUHU216HW,2016-07-26 23:24:00,
2016-07-26 16:29:00,101.2,34.8,29.89,North,0,0.0,0.0,7,0.00,,,0.00,WUHU216HW,2016-07-26 23:29:00,
2016-07-26 16:34:00,101.2,34.8,29.89,North,0,0.0,0.0,7,0.00,,,0.00,WUHU216HW,2016-07-26 23:34:00,
2016-07-26 16:39:00,101.2,34.8,29.89,North,0,0.0,0.0,7,0.00,,,0.00,WUHU216HW,2016-07-26 23:39:00,
2016-07-26 16:44:00,101.2,34.8,29.89,North,0,0.0,0.0,6,0.00,,,0.00,WUHU216HW,2016-07-26 23:44:00,
2016-07-26 16:49:00,101.3,34.8,29.89,North,0,0.0,0.0,7,0.00,,,0.00,WUHU216HW,2016-07-26 23:49:00,
2016-07-26 16:54:00,100.3,34.0,29.89,North,0,0.0,0.0,8,0.00,,,0.00,WUHU216HW,2016-07-26 23:54:00,
2016-07-26 16:59:00,100.6,34.3,29.89,North,0,0.0,0.0,7,0.00,,,0.00,WUHU216HW,2016-07-26 23:59:00,
2016-07-26 17:04:00,101.0,34.6,29.89,North,0,0.0,0.0,7,0.00,,,0.00,WUHU216HW,2016-07-27 00:04:00,
2016-07-26 17:09:00,101.0,34.6,29.89,North,0,0.0,0.0,7,0.00,,,0.00,WUHU216HW,2016-07-27 00:09:00,
2016-07-26 17:14:00,100.8,34.5,29.89,North,0,0.0,0.0,7,0.00,,,0.00,WUHU216HW,2016-07-27 00:14:00,
2016-07-26 17:19:00,100.8,34.5,29.89,North,0,0.0,0.0,7,0.00,,,0.00,WUHU216HW,2016-07-27 00:19:00,
2016-07-26 17:24:00,100.6,34.3,29.89,North,0,0.0,0.0,7,0.00,,,0.00,WUHU216HW,2016-07-27 00:24:00,
2016-07-26 17:29:00,100.6,34.3,29.89,North,0,0.0,0.0,7,0.00,,,0.00,WUHU216HW,2016-07-27 00:29:00,
2016-07-26 17:34:00,100.4,34.2,29.89,North,0,0.0,0.0,7,0.00,,,0.00,WUHU216HW,2016-07-27 00:34:00,
2016-07-26 17:39:00,100.1,33.9,29.89,North,0,0.0,0.0,7,0.00,,,0.00,WUHU216HW,2016-07-27 00:39:00,
2016-07-26 17:44:00,100.3,34.0,29.89,North,0,0.0,0.0,7,0.00,,,0.00,WUHU216HW,2016-07-27 00:44:00,
2016-07-26 17:49:00,100.1,33.9,29.89,North,0,0.0,0.0,6,0.00,,,0.00,WUHU216HW,2016-07-27 00:49:00,
2016-07-26 17:54:00,99.5,33.5,29.89,North,0,0.0,0.0,7,0.00,,,0.00,WUHU216HW,2016-07-27 00:54:00,
2016-07-26 17:55:00,99.5,33.5,29.89,North,0,0.0,0.0,7,0.00,,,0.00,WUHU216HW,2016-07-27 00:55:00,
2016-07-26 18:00:00,99.2,33.2,29.89,North,0,0.0,0.0,7,0.00,,,0.00,WUHU216HW,2016-07-27 01:00:00,
2016-07-26 18:05:00,99.4,33.3,29.89,North,0,0.0,0.0,8,0.00,,,0.00,WUHU216HW,2016-07-27 01:05:00,
2016-07-26 18:10:00,99.2,33.2,29.89,North,0,0.0,0.0,7,0.00,,,0.00,WUHU216HW,2016-07-27 01:10:00,
2016-07-26 18:15:00,99.2,33.2,29.89,North,0,0.0,0.0,7,0.00,,,0.00,WUHU216HW,2016-07-27 01:15:00,
2016-07-26 18:36:00,97.6,31.9,29.89,North,0,0.0,0.0,9,0.00,,,0.00,WUHU216HW,2016-07-27 01:36:00,
2016-07-26 18:41:00,97.2,31.6,29.89,North,0,0.0,0.0,10,0.00,,,0.00,WUHU216HW,2016-07-27 01:41:00,
2016-07-26 18:46:00,97.0,31.5,29.89,North,0,0.0,0.0,10,0.00,,,0.00,WUHU216HW,2016-07-27 01:46:00,
2016-07-26 18:51:00,96.8,33.1,29.89,North,0,0.0,0.0,11,0.00,,,0.00,WUHU216HW,2016-07-27 01:51:00,
2016-07-26 18:56:00,96.7,33.0,29.89,North,0,0.0,0.0,11,0.00,,,0.00,WUHU216HW,2016-07-27 01:56:00,
2016-07-26 19:01:00,96.1,32.6,29.89,North,0,0.0,0.0,11,0.00,,,0.00,WUHU216HW,2016-07-27 02:01:00,
2016-07-26 19:06:00,95.6,30.4,29.90,North,0,0.0,0.0,10,0.00,,,0.00,WUHU216HW,2016-07-27 02:06:00,
2016-07-26 19:11:00,95.2,32.0,29.90,North,0,0.0,0.0,11,0.00,,,0.00,WUHU216HW,2016-07-27 02:11:00,
2016-07-26 19:16:00,95.0,31.9,29.89,North,0,0.0,0.0,11,0.00,,,0.00,WUHU216HW,2016-07-27 02:16:00,
2016-07-26 19:21:00,94.3,29.5,29.90,North,0,0.0,0.0,10,0.00,,,0.00,WUHU216HW,2016-07-27 02:21:00,
2016-07-26 19:26:00,93.8,30.8,29.90,North,0,0.0,0.0,11,0.00,,,0.00,WUHU216HW,2016-07-27 02:26:00,
2016-07-26 19:31:00,93.1,30.2,29.90,North,0,0.0,0.0,11,0.00,,,0.00,WUHU216HW,2016-07-27 02:31:00,
2016-07-26 19:36:00,92.7,30.0,29.90,North,0,0.0,0.0,11,0.00,,,0.00,WUHU216HW,2016-07-27 02:36:00,
2016-07-26 19:41:00,92.2,29.6,29.90,North,0,0.0,0.0,11,0.00,,,0.00,WUHU216HW,2016-07-27 02:41:00,
2016-07-26 19:46:00,91.8,31.2,29.90,North,0,0.0,0.0,12,0.00,,,0.00,WUHU216HW,2016-07-27 02:46:00,
2016-07-26 19:51:00,91.1,32.3,29.90,North,0,0.0,0.0,13,0.00,,,0.00,WUHU216HW,2016-07-27 02:51:00,
2016-07-26 19:56:00,90.5,31.9,29.90,North,0,0.0,0.0,13,0.00,,,0.00,WUHU216HW,2016-07-27 02:56:00,
2016-07-26 20:01:00,90.0,31.4,29.90,North,0,0.0,0.0,13,0.00,,,0.00,WUHU216HW,2016-07-27 03:01:00,
2016-07-26 20:06:00,89.3,30.9,29.91,North,0,0.0,0.0,13,0.00,,,0.00,WUHU216HW,2016-07-27 03:06:00,
2016-07-26 20:11:00,88.9,30.6,29.91,North,0,0.0,0.0,13,0.00,,,0.00,WUHU216HW,2016-07-27 03:11:00,
2016-07-26 20:16:00,88.6,30.3,29.91,North,0,0.0,0.0,13,0.00,,,0.00,WUHU216HW,2016-07-27 03:16:00,
2016-07-26 20:21:00,88.2,33.6,29.91,North,0,0.0,0.0,15,0.00,,,0.00,WUHU216HW,2016-07-27 03:21:00,
2016-07-26 20:26:00,87.7,33.1,29.91,North,0,0.0,0.0,15,0.00,,,0.00,WUHU216HW,2016-07-27 03:26:00,
2016-07-26 20:31:00,87.1,32.7,29.91,North,0,0.0,0.0,15,0.00,,,0.00,WUHU216HW,2016-07-27 03:31:00,
2016-07-26 20:36:00,86.8,32.4,29.91,North,0,0.0,0.0,15,0.00,,,0.00,WUHU216HW,2016-07-27 03:36:00,
2016-07-26 20:41:00,86.0,31.8,29.91,North,0,0.0,0.0,15,0.00,,,0.00,WUHU216HW,2016-07-27 03:41:00,
2016-07-26 20:46:00,85.5,33.0,29.91,North,0,0.0,0.0,16,0.00,,,0.00,WUHU216HW,2016-07-27 03:46:00,
2016-07-26 20:51:00,85.0,32.6,29.91,North,0,0.0,0.0,16,0.00,,,0.00,WUHU216HW,2016-07-27 03:51:00,
2016-07-26 20:56:00,84.6,32.3,29.92,North,0,0.0,0.0,16,0.00,,,0.00,WUHU216HW,2016-07-27 03:56:00,
2016-07-26 21:01:00,83.9,31.8,29.92,North,0,0.0,0.0,16,0.00,,,0.00,WUHU216HW,2016-07-27 04:01:00,
2016-07-26 21:06:00,83.2,31.2,29.92,North,0,0.0,0.0,16,0.00,,,0.00,WUHU216HW,2016-07-27 04:06:00,
2016-07-26 21:11:00,82.8,32.7,29.92,North,0,0.0,0.0,17,0.00,,,0.00,WUHU216HW,2016-07-27 04:11:00,
2016-07-26 21:16:00,82.4,32.4,29.93,North,0,0.0,0.0,17,0.00,,,0.00,WUHU216HW,2016-07-27 04:16:00,
2016-07-26 21:21:00,82.3,32.2,29.93,North,0,0.0,0.0,17,0.00,,,0.00,WUHU216HW,2016-07-27 04:21:00,
2016-07-26 21:26:00,82.1,32.0,29.93,North,0,0.0,0.0,17,0.00,,,0.00,WUHU216HW,2016-07-27 04:26:00,
2016-07-26 21:31:00,82.1,32.0,29.93,North,0,0.0,0.0,17,0.00,,,0.00,WUHU216HW,2016-07-27 04:31:00,
2016-07-26 21:36:00,82.1,32.0,29.93,North,0,0.0,0.0,17,0.00,,,0.00,WUHU216HW,2016-07-27 04:36:00,
2016-07-26 21:41:00,82.1,33.8,29.94,North,0,0.0,0.0,18,0.00,,,0.00,WUHU216HW,2016-07-27 04:41:00,
2016-07-26 21:46:00,81.9,33.7,29.94,North,0,0.0,0.0,18,0.00,,,0.00,WUHU216HW,2016-07-27 04:46:00,
2016-07-26 21:51:00,81.7,33.5,29.94,North,0,0.0,0.0,18,0.00,,,0.00,WUHU216HW,2016-07-27 04:51:00,
2016-07-26 21:56:00,81.5,33.3,29.94,North,0,0.0,0.0,18,0.00,,,0.00,WUHU216HW,2016-07-27 04:56:00,
2016-07-26 22:01:00,81.4,33.2,29.94,North,0,0.0,0.0,18,0.00,,,0.00,WUHU216HW,2016-07-27 05:01:00,
2016-07-26 22:06:00,81.0,33.0,29.94,North,0,0.0,0.0,18,0.00,,,0.00,WUHU216HW,2016-07-27 05:06:00,
2016-07-26 22:11:00,80.6,32.6,29.94,North,0,0.0,0.0,18,0.00,,,0.00,WUHU216HW,2016-07-27 05:11:00,
2016-07-26 22:16:00,80.5,32.5,29.94,North,0,0.0,0.0,18,0.00,,,0.00,WUHU216HW,2016-07-27 05:16:00,
2016-07-26 22:21:00,80.3,32.3,29.94,North,0,0.0,0.0,18,0.00,,,0.00,WUHU216HW,2016-07-27 05:21:00,
2016-07-26 22:26:00,79.9,33.7,29.94,North,0,0.0,0.0,19,0.00,,,0.00,WUHU216HW,2016-07-27 05:26:00,
2016-07-26 22:31:00,79.6,33.4,29.94,North,0,0.0,0.0,19,0.00,,,0.00,WUHU216HW,2016-07-27 05:31:00,
2016-07-26 22:36:00,79.2,34.8,29.94,North,0,0.0,0.0,20,0.00,,,0.00,WUHU216HW,2016-07-27 05:36:00,
2016-07-26 22:41:00,78.8,35.5,29.94,North,0,0.0,0.0,21,0.00,,,0.00,WUHU216HW,2016-07-27 05:41:00,